カタログに戻る

FENGYUN 1C DEB

運用中SSO
NORAD 31519·DEBRIS·🇨🇳 China

打ち上げ May 10, 1999 から Taiyuan Satellite Launch Center

Loading…

次のパス (今後24時間)

TLE

最新Source: Space-Track

元期: Sep 13, 2026, 05:03 UTC

1 31519U 99025BXJ 26256.21078703  .00000484  00000-0  22672-3 0  9991
2 31519  98.5878 251.0906 0052549 163.0441 197.2509 14.23877674686702

AllMySatでFENGYUN 1C DEBをリアルタイム追跡

Download on the App Store